Location: Fort Wayne
(41.1310°N, 85.1290°W)
Time: 01:59:09
(UTC-04:00)

Vanguard 3 - Visible Passes

Search period start: 01 October 2014 00:00
Search period end: 11 October 2014 00:00
Orbit: 508 x 3278 km, 33.3° (Epoch: 30 September)

Date Brightness Start Highest point End Pass type
(mag) Time Alt. Az. Time Alt. Az. Time Alt. Az.
04 Oct 8.9 07:01:14 10° SSW 07:04:48 23° SSE 07:09:43 10° ESE visible
05 Oct 9.1 05:52:32 10° SSE 05:53:43 11° SE 05:55:00 10° SE visible
06 Oct 8.6 06:49:32 10° SSW 06:52:57 24° SSE 06:57:35 10° ESE visible
07 Oct 8.8 05:40:53 12° SSE 05:41:49 13° SSE 05:43:49 10° ESE visible
08 Oct 8.3 06:37:57 10° SW 06:41:11 25° SSE 06:45:31 10° ESE visible
09 Oct 8.7 05:30:14 15° SSE 05:30:14 15° SSE 05:32:23 10° ESE visible
10 Oct 8.0 06:27:16 16° SSW 06:29:28 26° SSE 06:33:30 10° ESE visible
